• In Hungary
  • List of Countries
  • For 7 days
  • Water Temperature
  • Satellite Maps
  • Weather Map
  • News
  • Weather Widgets
  • user-avatar
    Login

    Hourly Weather Konyashino

    Today, 22 September, Saturday

    Time Temperature Precipitation Wind Pressure Humidity
    00:00 +16°C° 0 mm 2 mps 741 mmHg 94%
    01:00 +16°C° 0 mm 2 mps 741 mmHg 95%
    02:00 +16°C° 0 mm 2 mps 740 mmHg 96%
    03:00 +16°C° 0 mm 3 mps 740 mmHg 95%
    04:00 +16°C° 0 mm 3 mps 740 mmHg 93%
    05:00 +16°C° 0 mm 3 mps 740 mmHg 92%
    06:00 +17°C° 0 mm 4 mps 739 mmHg 86%
    07:00 +18°C° 0 mm 4 mps 739 mmHg 80%
    08:00 +19°C° 0 mm 5 mps 739 mmHg 73%
    09:00 +20°C° 0 mm 5 mps 738 mmHg 67%
    10:00 +22°C° 0 mm 6 mps 738 mmHg 61%
    11:00 +23°C° 0 mm 6 mps 738 mmHg 54%
    12:00 +24°C° 0 mm 6 mps 737 mmHg 52%
    13:00 +24°C° 0 mm 6 mps 736 mmHg 50%
    14:00 +24°C° 0 mm 6 mps 736 mmHg 48%
    15:00 +23°C° 0 mm 5 mps 736 mmHg 54%
    16:00 +22°C° 0 mm 5 mps 735 mmHg 59%
    17:00 +21°C° 0 mm 4 mps 735 mmHg 64%
    18:00 +19°C° 0.4 mm 4 mps 735 mmHg 72%
    19:00 +17°C° 0.4 mm 4 mps 735 mmHg 81%
    20:00 +13°C° 0.4 mm 3 mps 735 mmHg 89%
    21:00 +13°C° 0.2 mm 3 mps 735 mmHg 89%
    22:00 +12°C° 0.2 mm 3 mps 735 mmHg 90%
    23:00 +11°C° 0.2 mm 3 mps 735 mmHg 90%

    Tomorrow, 23 September, Sunday

    Time Temperature Precipitation Wind Pressure Humidity
    00:00 +10°C° 0.5 mm 3 mps 735 mmHg 91%
    01:00 +10°C° 0.5 mm 3 mps 735 mmHg 91%
    02:00 +9°C° 0.5 mm 3 mps 735 mmHg 92%
    03:00 +9°C° 1.3 mm 3 mps 735 mmHg 93%
    04:00 +9°C° 1.3 mm 3 mps 735 mmHg 93%
    05:00 +9°C° 1.3 mm 2 mps 735 mmHg 94%
    06:00 +9°C° 0.5 mm 3 mps 735 mmHg 93%
    07:00 +9°C° 0.5 mm 3 mps 735 mmHg 92%
    08:00 +10°C° 0.5 mm 3 mps 735 mmHg 91%
    09:00 +10°C° 0.1 mm 3 mps 735 mmHg 87%
    10:00 +11°C° 0.1 mm 4 mps 735 mmHg 83%
    11:00 +12°C° 0.1 mm 4 mps 735 mmHg 79%
    12:00 +12°C° 0.1 mm 4 mps 735 mmHg 74%
    13:00 +13°C° 0.1 mm 4 mps 735 mmHg 69%
    14:00 +14°C° 0.1 mm 4 mps 735 mmHg 65%
    15:00 +13°C° 0.1 mm 4 mps 735 mmHg 69%
    16:00 +12°C° 0.1 mm 3 mps 734 mmHg 73%
    17:00 +11°C° 0.1 mm 3 mps 734 mmHg 77%
    18:00 +10°C° 0.2 mm 3 mps 734 mmHg 81%
    19:00 +9°C° 0.2 mm 3 mps 734 mmHg 84%
    20:00 +8°C° 0.2 mm 3 mps 735 mmHg 88%
    21:00 +8°C° 0 mm 3 mps 735 mmHg 89%
    22:00 +8°C° 0 mm 3 mps 735 mmHg 90%
    23:00 +7°C° 0 mm 3 mps 735 mmHg 92%

    Day after tomorrow, 24 September, Monday

    Time Temperature Precipitation Wind Pressure Humidity
    00:00 +7°C° 0 mm 3 mps 735 mmHg 93%
    01:00 +7°C° 0 mm 3 mps 735 mmHg 94%
    02:00 +5°C° 0 mm 3 mps 735 mmHg 95%
    03:00 +6°C° 0 mm 2 mps 734 mmHg 95%
    04:00 +6°C° 0 mm 2 mps 734 mmHg 96%
    05:00 +6°C° 0 mm 2 mps 734 mmHg 96%
    06:00 +6°C° 0 mm 2 mps 734 mmHg 93%
    07:00 +7°C° 0 mm 2 mps 734 mmHg 90%
    08:00 +8°C° 0 mm 2 mps 734 mmHg 87%
    09:00 +9°C° 0 mm 2 mps 734 mmHg 83%
    10:00 +10°C° 0 mm 2 mps 733 mmHg 80%
    11:00 +12°C° 0 mm 2 mps 733 mmHg 76%
    12:00 +10°C° 1 mm 3 mps 732 mmHg 81%
    13:00 +10°C° 1 mm 3 mps 732 mmHg 86%
    14:00 +9°C° 1 mm 3 mps 731 mmHg 90%
    15:00 +8°C° 1.5 mm 4 mps 730 mmHg 91%
    16:00 +7°C° 1.5 mm 4 mps 729 mmHg 93%
    17:00 +7°C° 1.5 mm 4 mps 728 mmHg 94%
    18:00 +7°C° 1.9 mm 5 mps 727 mmHg 94%
    19:00 +7°C° 1.9 mm 5 mps 726 mmHg 94%
    20:00 +6°C° 1.9 mm 5 mps 725 mmHg 94%
    21:00 +5°C° 2.4 mm 6 mps 724 mmHg 94%
    22:00 +5°C° 2.4 mm 6 mps 724 mmHg 94%
    23:00 +5°C° 2.4 mm 7 mps 723 mmHg 94%

    25 September, Tuesday

    Time Temperature Precipitation Wind Pressure Humidity
    00:00 +5°C° 2.2 mm 7 mps 723 mmHg 93%
    01:00 +5°C° 2.2 mm 7 mps 723 mmHg 92%
    02:00 +5°C° 2.2 mm 8 mps 723 mmHg 91%
    03:00 +5°C° 1.5 mm 8 mps 724 mmHg 91%
    04:00 +5°C° 1.5 mm 8 mps 725 mmHg 90%
    05:00 +5°C° 1.5 mm 8 mps 725 mmHg 89%
    06:00 +5°C° 0.9 mm 8 mps 726 mmHg 88%
    07:00 +4°C° 0.9 mm 8 mps 727 mmHg 87%
    08:00 +4°C° 0.9 mm 8 mps 728 mmHg 86%
    09:00 +4°C° 0.2 mm 8 mps 729 mmHg 84%
    10:00 +5°C° 0.2 mm 8 mps 730 mmHg 82%
    11:00 +5°C° 0.2 mm 8 mps 731 mmHg 80%
    12:00 +5°C° 0 mm 8 mps 732 mmHg 76%
    13:00 +6°C° 0 mm 8 mps 733 mmHg 73%
    14:00 +6°C° 0 mm 7 mps 734 mmHg 69%
    15:00 +6°C° 0 mm 7 mps 734 mmHg 70%
    16:00 +5°C° 0 mm 6 mps 735 mmHg 72%
    17:00 +5°C° 0 mm 6 mps 736 mmHg 73%
    18:00 +4°C° 0 mm 6 mps 737 mmHg 74%
    19:00 +4°C° 0 mm 6 mps 738 mmHg 74%
    20:00 +4°C° 0 mm 6 mps 738 mmHg 75%
    21:00 +3°C° 0 mm 5 mps 739 mmHg 74%
    22:00 +2°C° 0 mm 5 mps 739 mmHg 72%
    23:00 +1°C° 0 mm 4 mps 740 mmHg 71%

    26 September, Wednesday

    Time Temperature Precipitation Wind Pressure Humidity
    00:00 +1°C° 0 mm 4 mps 740 mmHg 73%
    01:00 +1°C° 0 mm 4 mps 740 mmHg 74%
    02:00 0°C° 0 mm 4 mps 740 mmHg 76%
    03:00 +1°C° 0 mm 4 mps 740 mmHg 78%
    04:00 +1°C° 0 mm 4 mps 740 mmHg 79%
    05:00 +3°C° 0 mm 4 mps 739 mmHg 81%
    06:00 +3°C° 0.2 mm 4 mps 739 mmHg 83%
    07:00 +3°C° 0.2 mm 5 mps 739 mmHg 84%
    08:00 +3°C° 0.2 mm 5 mps 739 mmHg 86%
    09:00 +5°C° 0.7 mm 4 mps 738 mmHg 86%
    10:00 +5°C° 0.7 mm 4 mps 738 mmHg 87%
    11:00 +5°C° 0.7 mm 4 mps 738 mmHg 88%
    12:00 +5°C° 0.5 mm 4 mps 737 mmHg 89%
    13:00 +5°C° 0.5 mm 3 mps 737 mmHg 89%
    14:00 +5°C° 0.5 mm 3 mps 737 mmHg 90%
    15:00 +5°C° 0.4 mm 3 mps 736 mmHg 91%
    16:00 +6°C° 0.4 mm 2 mps 736 mmHg 91%
    17:00 +5°C° 0.4 mm 2 mps 736 mmHg 92%
    18:00 +5°C° 0.7 mm 3 mps 735 mmHg 93%
    19:00 +5°C° 0.7 mm 3 mps 735 mmHg 94%
    20:00 +5°C° 0.7 mm 4 mps 734 mmHg 94%
    21:00 +6°C° 0.6 mm 4 mps 733 mmHg 94%
    22:00 +6°C° 0.6 mm 5 mps 732 mmHg 93%
    23:00 +5°C° 0.6 mm 6 mps 732 mmHg 92%

    27 September, Thursday

    Time Temperature Precipitation Wind Pressure Humidity
    00:00 +7°C° 1 mm 6 mps 731 mmHg 92%
    01:00 +6°C° 1 mm 7 mps 730 mmHg 91%
    02:00 +6°C° 1 mm 7 mps 729 mmHg 91%
    03:00 +8°C° 0.3 mm 7 mps 728 mmHg 91%
    04:00 +8°C° 0.3 mm 7 mps 728 mmHg 91%
    05:00 +9°C° 0.3 mm 6 mps 728 mmHg 91%
    06:00 +9°C° 0.5 mm 6 mps 728 mmHg 89%
    07:00 +9°C° 0.5 mm 6 mps 728 mmHg 88%
    08:00 +9°C° 0.5 mm 6 mps 728 mmHg 86%
    09:00 +10°C° 0.1 mm 6 mps 729 mmHg 81%
    10:00 +10°C° 0.1 mm 6 mps 729 mmHg 76%
    11:00 +10°C° 0.1 mm 5 mps 729 mmHg 71%
    12:00 +10°C° 0.2 mm 5 mps 729 mmHg 72%
    13:00 +11°C° 0.2 mm 4 mps 729 mmHg 73%
    14:00 +10°C° 0.2 mm 3 mps 729 mmHg 75%
    15:00 +10°C° 0.9 mm 4 mps 728 mmHg 80%
    16:00 +8°C° 0.9 mm 4 mps 728 mmHg 86%
    17:00 +8°C° 0.9 mm 4 mps 727 mmHg 91%
    18:00 +8°C° 0.2 mm 4 mps 727 mmHg 92%
    19:00 +8°C° 0.2 mm 4 mps 727 mmHg 92%
    20:00 +8°C° 0.2 mm 4 mps 727 mmHg 93%
    21:00 +8°C° 0.3 mm 4 mps 727 mmHg 93%
    22:00 +9°C° 0.3 mm 3 mps 726 mmHg 94%
    23:00 +8°C° 0.3 mm 3 mps 726 mmHg 94%
    Show more